Hourly Weather Roundup
Issued by NWS

Home | Current Version | Previous Version | Text Only | Print | Product List | Glossary On
Versions: 1 2 3 4 5 6 7 8 9 10 11 12 13 14 15 16 17 18 19 20 21 22 23 24 25 26 27 28 29 30 31 32 33 34 35 36 37 38 39 40 41 42 43 44 45 46 47 48 49 50
000
NZUS43 KILX 231510
HWRCRS

NWR Hourly Weather Roundup
National Weather Service Lincoln IL
1000 AM CDT SUN APR 23 2017


CITY           SKY/WX    TMP DP  RH WIND       PRES   REMARKS
Champaign      SUNNY     60  32  34 NE16      30.11S
Lawrenceville  SUNNY     56  39  53 N18       30.06F
Peoria         SUNNY     59  34  39 NE7       30.14F
Springfield    SUNNY     61  36  39 NE10      30.13S
$$


CITY           SKY/WX    TMP DP  RH WIND       PRES   REMARKS
Bloomington    SUNNY     59  34  39 NE15      30.14S
Danville       SUNNY     57  33  39 NE13      30.09S
Decatur        SUNNY     59  37  44 E14       30.12S
Effingham      SUNNY     56  35  44 NE7G17    30.11S
Flora          SUNNY     55  38  52 NE14      30.08F
Galesburg      SUNNY     60  34  37 N6        30.15S
Jacksonville   SUNNY     58  32  37 NE9       30.14S
Lacon          SUNNY     56  35  45 CALM      30.14F
La Salle       SUNNY     56  26  32 N3        30.15F
Lincoln        SUNNY     60  37  40 NE9       30.13F
Litchfield     SUNNY     56  35  44 NE15G21   30.11S

CITY           SKY/WX    TMP DP  RH WIND       PRES   REMARKS
Macomb         SUNNY     59  30  33 NE6       30.17S
Mattoon        SUNNY     58  34  40 NE17G23   30.09S
Moline         SUNNY     61  33  35 VRB5      30.15F
Olney          SUNNY     54  39  57 NE10G17   30.08S
Paris          SUNNY     58  33  39 NE16      30.10F
Pontiac        SUNNY     59  31  34 E8        30.14F
Quincy         SUNNY     58  31  35 NE9       30.15F
Rantoul        SUNNY     60  35  40 NE13      30.12S
Robinson       SUNNY     54  38  53 NE10      30.09S
Taylorville    SUNNY     59  33  37 NE10      30.11F
Terre Haute    LGT RAIN  58  33  39 E20       30.08F
$$


CITY           SKY/WX    TMP DP  RH WIND       PRES   REMARKS
Burlington     SUNNY     61  34  36 N7        30.15F
Chicago        MOSUNNY   60  28  29 W5        30.13F
Des Moines     SUNNY     62  35  36 W5        30.15F
Evansville     MOSUNNY   56  41  57 NE15G24   30.00S
Indianapolis   MOSUNNY   56  34  43 E13       30.08S
Kansas City    MOSUNNY   59  34  39 N6        30.18S
Milwaukee      MOSUNNY   63  29  27 VRB7      30.12F
St Louis       SUNNY     60  34  37 NE12      30.11F
$$





USA.gov is the U.S. government's official web portal to all federal, state and local government web resources and services.